CAPE
0 0 0 0 0 0 0 0 0 31 345 261 128 86 414 329 82 13 3 5 6 3 6 20 11 0 62 64 0 318 169 305 129 231 643 653 644 419 520 566 642 865 1009 1189
0 0 0 0 0 0 0 0 72 87 88 87 3 129 416 536 225 36 7 0 2 2 3 8 7 0 0 48 0 317 292 351 63 141 708 749 805 779 610 559 773 942 967 1008
0 0 0 0 0 0 0 0 20 132 24 117 42 20 73 311 353 103 27 9 3 3 8 4 1 0 0 45 64 450 275 297 117 241 566 460 227 219 488 208 695 1047 1119 990
0 0 0 0 0 0 0 0 0 130 43 108 105 23 0 182 449 189 58 13 5 12 18 8 0 0 0 22 116 482 413 189 459 1185 358 312 180 4 326 578 826 1200 1131 1037
0 0 0 0 0 0 0 0 55 128 35 41 0 23 2 140 284 324 302 160 60 32 32 0 0 0 34 38 75 274 519 355 274 802 858 280 147 10 602 903 970 1143 1120 1068
0 0 0 0 0 0 0 0 107 128 33 4 2 17 44 0 201 89 355 521 333 197 13 4 0 0 10 0 42 207 549 366 227 812 958 471 266 412 517 667 157 616 852 1005
0 0 0 0 0 0 0 0 0 17 18 7 0 31 164 196 117 0 5 0 209 303 173 29 1 0 0 0 101 194 402 411 315 932 624 724 449 93 403 264 108 455 480 752
0 0 0 0 0 0 0 0 0 19 17 10 39 142 60 56 99 50 6 16 88 49 48 85 79 25 0 15 95 216 243 337 373 1314 829 1276 787 555 532 410 198 581 782 741
1 0 0 0 0 0 0 0 0 0 3 2 228 170 102 4 0 55 1 24 172 33 63 233 98 90 93 32 65 135 196 165 246 1093 861 1075 1378 607 509 86 744 1062 1207 930
0 0 0 0 0 0 0 0 0 0 36 33 328 195 171 223 486 678 626 519 413 168 79 101 99 135 3 285 263 243 414 174 148 512 1069 933 970 1309 1376 737 935 969 888 852
0 0 0 0 0 0 0 0 0 0 1 15 61 86 172 459 259 208 93 131 252 14 12 12 2 0 42 30 70 165 369 659 651 449 1090 1235 1111 1047 910 1501 1361 880 865 681
0 0 0 0 0 0 0 0 0 0 0 118 29 51 289 173 25 9 1 0 55 69 130 46 11 0 1 17 1 18 123 499 601 739 1078 1158 1685 1541 1194 1199 1476 1374 908 552
0 0 4 0 0 0 0 0 0 0 0 40 4 10 320 44 31 46 0 0 2 19 52 72 46 74 23 0 1 0 2 325 237 145 520 895 1588 1845 1399 1152 1516 1634 1135 888
0 0 0 0 0 0 0 0 0 0 0 47 62 123 220 119 160 42 2 0 0 0 0 13 0 0 0 1 9 102 65 332 128 7 78 196 450 969 1520 1571 1897 2019 1906 1563
0 0 0 0 0 0 0 0 0 0 86 26 0 67 182 52 3 0 0 0 0 0 0 0 0 0 0 0 0 0 1 44 31 5 28 120 58 428 376 1081 1634 1912 2376 2018
0 0 0 0 0 0 0 0 0 0 126 106 122 146 132 12 0 0 0 0 0 0 0 0 0 0 0 0 1 0 0 0 0 44 141 296 111 0 1 121 695 1109 1524 1881
0 0 0 0 0 0 0 0 0 211 335 220 44 106 12 4 0 0 0 0 0 0 0 0 0 0 0 0 0 0 0 0 0 0 0 68 147 119 125 197 621 935 1126 1206
0 0 0 0 0 0 0 0 0 56 237 154 127 30 12 0 0 0 0 0 0 0 0 0 0 0 0 0 0 0 0 0 0 0 0 0 0 30 109 95 180 352 389 750
0 0 0 0 0 0 0 0 0 61 93 178 66 1 0 0 0 0 0 0 0 0 0 0 0 0 0 0 0 0 0 0 0 0 0 0 0 0 0 0 2 34 122 425
0 0 0 0 1 0 0 0 0 3 0 119 0 0 0 0 0 0 0 0 0 0 0 0 0 0 0 0 0 0 0 0 0 0 0 0 0 0 0 0 0 0 15 24
0 0 0 0 3 12 0 0 0 0 0 16 0 0 0 0 0 0 0 0 0 0 0 0 0 0 0 0 0 0 0 0 0 0 0 0 0 0 0 0 0 0 0 0
19 0 0 0 0 7 0 0 0 0 0 0 0 0 0 0 0 0 0 0 0 0 0 0 0 0 0 0 0 0 0 0 0 0 0 0 0 0 0 0 0 0 0 0
17 17 18 35 15 0 0 0 0 0 0 0 0 0 0 0 0 0 0 0 0 0 0 0 0 0 0 0 0 0 0 0 0 0 0 0 0 0 0 0 0 0 0 0
1 0 3 33 29 0 0 0 0 0 0 0 0 0 0 0 0 0 0 0 0 0 0 0 0 0 0 0 0 0 0 0 0 0 0 0 0 0 0 0 0 0 0 0
36 13 0 0 2 0 0 0 0 0 0 0 0 0 0 0 0 0 0 0 0 0 0 0 0 0 0 0 0 0 0 0 0 0 0 0 0 0 0 0 0 0 0 0
56 52 16 13 64 26 2 0 0 0 0 0 0 0 0 0 0 0 0 0 0 0 0 0 0 0 0 0 0 0 0 0 0 0 0 0 0 0 0 0 0 0 0 0
CIN
-0 -0 -0 -0 -0 -0 -0 -0 -0 -63 -58 -80 -108 -109 -38 -3 -8 -15 -15 -5 -7 -9 -9 -14 -18 -0 -39 -44 -0 -16 -44 -38 -32 -25 -21 -15 -42 -67 -76 -71 -46 -33 -18 -10
-0 -0 -0 -0 -0 -0 -0 -0 -41 -74 -69 -55 -72 -11 -39 -17 -10 -10 -12 -0 -9 -10 -14 -13 -25 -0 -0 -46 -0 -25 -35 -41 -31 -26 -21 -18 -31 -38 -41 -43 -23 -15 -18 -18
-0 -0 -0 -0 -0 -0 -0 -0 -37 -27 -127 -102 -105 -6 -112 -41 -12 -11 -4 -13 -9 -13 -18 -20 -8 -0 -0 -82 -36 -28 -49 -42 -39 -32 -26 -50 -66 -70 -39 -77 -19 -9 -11 -16
-0 -0 -0 -0 -0 -0 -0 -0 -0 -74 -114 -48 -67 -17 -0 -59 -4 -7 -18 -29 -32 -18 -19 -22 -2 -0 -0 -39 -45 -24 -35 -51 -23 -12 -24 -20 -35 -11 -41 -26 -21 -11 -10 -8
-0 -0 -0 -0 -0 -0 -0 -0 -32 -45 -53 -68 -2 -11 -117 -117 -17 -11 -7 -15 -31 -24 -26 -0 -0 -0 -88 -72 -65 -44 -44 -38 -30 -13 -13 -29 -52 -26 -37 -29 -26 -8 -11 -7
-0 -0 -0 -0 -0 -0 -0 -0 -9 -14 -42 -0 -18 -91 -101 -0 -48 -68 -51 -15 -39 -38 -30 -10 -7 -0 -107 -0 -60 -70 -60 -53 -48 -19 -13 -32 -53 -49 -69 -37 -100 -57 -29 -9
-0 -0 -0 -0 -0 -0 -0 -0 -0 -0 -7 -94 -0 -4 -32 -146 -114 -0 -123 -0 -66 -50 -25 -11 -13 -15 -0 -0 -91 -87 -66 -55 -53 -18 -28 -25 -44 -121 -92 -119 -123 -79 -68 -29
-0 -0 -0 -0 -0 -0 -0 -0 -0 -0 -5 -27 -21 -49 -159 -146 -113 -123 -176 -130 -146 -113 -44 -14 -14 -24 -0 -116 -102 -105 -89 -84 -65 -20 -37 -20 -37 -52 -83 -81 -132 -62 -34 -33
-6 -0 -0 -0 -0 -0 -0 -0 -0 -12 -20 -21 -53 -56 -82 -11 -7 -8 -33 -98 -171 -103 -122 -107 -143 -135 -89 -78 -85 -92 -107 -100 -80 -37 -44 -34 -14 -59 -55 -119 -49 -29 -22 -43
-0 -0 -0 -0 -0 -0 -0 -0 -0 -11 -11 -13 -57 -65 -60 -36 -44 -11 -5 -3 -11 -119 -255 -255 -153 -129 -173 -54 -79 -60 -100 -117 -100 -73 -50 -42 -32 -20 -24 -40 -25 -25 -35 -56
-0 -0 -0 -0 -0 -0 -0 -0 -0 -0 -7 -8 -6 -20 -82 -51 -49 -108 -86 -46 -37 -65 -211 -162 -54 -0 -81 -133 -130 -112 -61 -53 -101 -111 -74 -55 -34 -26 -17 -15 -16 -32 -47 -78
-0 -0 -0 -0 -0 -0 -0 -0 -0 -0 -0 -74 -43 -74 -82 -43 -126 -193 -1 -6 -53 -111 -129 -138 -72 -0 -8 -211 -6 -208 -37 -19 -41 -48 -44 -62 -46 -30 -22 -26 -19 -20 -42 -78
-0 -0 -75 -0 -0 -0 -0 -0 -0 -0 -0 -41 -44 -61 -50 -35 -85 -137 -0 -0 -56 -83 -129 -161 -175 -123 -176 -0 -34 -0 -19 -58 -102 -132 -55 -41 -18 -38 -23 -20 -27 -14 -24 -51
-0 -0 -0 -0 -0 -0 -0 -0 -0 -0 -0 -38 -68 -85 -108 -126 -83 -103 -54 -0 -0 -0 -0 -66 -0 -0 -0 -149 -255 -103 -41 -127 -157 -84 -119 -135 -49 -43 -10 -15 -17 -18 -13 -16
-0 -0 -0 -0 -0 -0 -0 -0 -0 -0 -78 -64 -0 -85 -56 -68 -46 -0 -0 -0 -0 -0 -0 -0 -0 -0 -0 -0 -0 -0 -11 -146 -145 -64 -198 -78 -122 -72 -101 -9 -2 -11 -6 -14
-0 -0 -0 -0 -0 -0 -0 -0 -0 -0 -76 -92 -90 -88 -34 -29 -0 -0 -0 -0 -0 -0 -0 -0 -0 -0 -0 -0 -3 -0 -0 -0 -0 -221 -110 -116 -194 -0 -198 -97 -20 -2 -5 -3
-0 -0 -0 -0 -0 -0 -0 -0 -0 -48 -48 -59 -99 -130 -31 -31 -0 -0 -0 -0 -0 -0 -0 -0 -0 -0 -0 -0 -0 -0 -0 -0 -0 -0 -0 -179 -117 -129 -101 -110 -50 -31 -8 -11
-0 -0 -18 -0 -0 -0 -0 -0 -0 -13 -27 -69 -116 -192 -142 -0 -0 -0 -0 -0 -0 -0 -0 -0 -0 -0 -0 -0 -0 -0 -0 -0 -0 -0 -0 -0 -0 -110 -206 -182 -118 -86 -93 -59
-0 -0 -0 -0 -0 -0 -0 -0 -0 -11 -14 -63 -104 -33 -0 -0 -0 -0 -0 -0 -0 -0 -0 -0 -0 -0 -0 -0 -0 -0 -0 -0 -0 -0 -0 -0 -0 -0 -0 -0 -56 -264 -160 -80
-0 -0 -0 -0 -25 -0 -0 -0 -0 -7 -0 -18 -1 -0 -0 -0 -0 -0 -0 -0 -0 -0 -0 -0 -0 -0 -0 -0 -0 -0 -0 -0 -0 -0 -0 -0 -0 -0 -0 -0 -0 -0 -251 -250
-0 -0 -0 -0 -24 -42 -0 -0 -0 -0 -0 -25 -0 -0 -0 -0 -0 -0 -0 -0 -0 -0 -0 -0 -0 -0 -0 -0 -0 -0 -0 -0 -0 -0 -0 -0 -0 -0 -0 -0 -0 -0 -0 -0
-21 -0 -0 -0 -0 -14 -0 -0 -0 -0 -0 -0 -0 -0 -0 -0 -0 -0 -0 -0 -0 -0 -0 -0 -0 -0 -0 -0 -0 -0 -0 -0 -0 -0 -0 -0 -0 -0 -0 -0 -0 -0 -0 -0
-18 -24 -23 -27 -31 -0 -0 -0 -0 -0 -0 -0 -0 -0 -0 -0 -0 -0 -0 -0 -0 -0 -0 -0 -0 -0 -0 -0 -0 -0 -0 -0 -0 -0 -0 -0 -0 -0 -0 -0 -0 -0 -0 -0
-1 -0 -19 -30 -31 -0 -0 -0 -0 -0 -0 -0 -0 -0 -0 -0 -0 -0 -0 -0 -0 -0 -0 -0 -0 -0 -0 -0 -0 -0 -0 -0 -0 -0 -0 -0 -0 -0 -0 -0 -0 -0 -0 -0
-16 -3 -0 -0 -2 -12 -0 -0 -0 -0 -0 -0 -0 -0 -0 -0 -0 -0 -0 -0 -0 -0 -0 -0 -0 -0 -0 -0 -0 -0 -0 -0 -0 -0 -0 -0 -0 -0 -0 -0 -0 -0 -0 -0
-9 -8 -7 -10 -6 -4 -5 -0 -0 -0 -0 -0 -0 -0 -0 -0 -0 -0 -0 -0 -0 -0 -0 -0 -0 -0 -0 -0 -0 -0 -0 -0 -0 -0 -0 -0 -0 -0 -0 -0 -0 -0 -0 -0
Wind_Speed
23 21 28 33 34 35 31 25 28 10 5 9 12 4 6 13 11 15 19 18 15 14 15 17 16 15 15 16 15 17 19 21 23 24 26 26 25 25 24 25 24 24 24 24
20 30 32 32 36 36 36 34 20 8 9 16 12 7 2 11 6 15 16 18 17 15 18 17 17 13 15 14 14 15 17 17 22 26 25 25 25 24 24 25 24 25 25 24
28 27 30 34 35 36 36 35 23 27 18 14 8 22 19 19 8 15 16 7 15 12 17 16 15 13 13 13 12 14 17 16 20 21 13 13 19 23 23 24 24 25 26 25
29 36 30 31 36 34 36 32 29 16 10 20 11 19 15 17 11 17 16 15 14 11 8 14 13 13 14 11 9 10 16 19 21 16 19 19 25 24 23 22 24 25 25 25
31 31 34 33 34 33 34 30 15 13 19 17 23 23 22 14 15 11 19 17 17 15 11 15 12 11 12 12 10 9 16 22 22 28 16 13 23 24 23 23 22 23 25 24
33 29 32 31 30 32 31 29 20 21 21 32 29 17 15 14 32 13 7 7 9 16 22 15 10 11 13 12 11 10 12 23 22 18 7 8 20 21 20 23 21 20 23 24
30 34 29 30 28 29 29 28 29 27 25 34 20 21 19 7 10 8 2 22 33 18 21 16 11 12 14 14 11 9 11 18 23 17 16 11 22 14 20 21 20 23 22 23
29 30 33 25 30 28 29 29 27 26 28 28 22 24 18 3 7 8 15 29 28 31 9 10 11 9 15 14 10 10 12 12 22 15 22 16 3 4 20 22 24 23 22 22
28 30 22 23 21 31 30 34 32 30 28 26 16 14 5 4 2 8 6 16 9 21 18 16 17 19 20 15 13 10 11 11 13 11 24 25 11 7 20 24 23 23 20 21
19 26 28 28 27 27 27 25 28 26 24 27 18 17 16 10 4 2 4 5 7 11 13 11 18 18 17 16 16 21 15 12 13 14 7 22 26 21 18 26 25 12 11 18
17 19 23 19 24 27 25 33 25 24 24 26 22 21 22 9 7 1 3 5 6 3 4 6 28 21 20 20 15 15 21 29 15 8 10 8 5 14 31 29 28 2 11 14
18 21 27 29 24 25 29 29 32 30 26 17 20 21 12 7 3 2 2 7 9 6 6 4 17 17 17 27 26 20 24 24 22 25 26 8 7 6 13 28 26 4 12 14
19 19 22 25 23 25 32 33 34 32 29 22 25 24 10 5 6 3 3 5 8 9 8 7 8 9 7 11 14 19 20 27 22 20 24 28 15 8 8 21 24 21 5 9
18 18 19 25 23 20 27 35 34 32 29 21 27 20 22 13 5 2 5 6 7 8 9 9 8 8 8 10 12 11 5 16 18 23 25 26 26 31 25 10 15 13 4 3
19 21 19 19 17 22 25 29 38 32 21 22 26 22 20 14 7 2 5 6 7 7 8 10 10 10 9 11 11 11 11 12 12 7 16 24 21 21 26 29 25 31 28 8
18 23 26 25 21 20 25 25 29 27 14 12 14 15 13 8 3 5 4 4 5 6 7 9 11 12 12 12 11 13 13 12 13 13 13 13 10 26 29 25 28 29 31 27
17 20 24 29 18 22 22 17 15 10 11 14 24 18 12 13 7 4 2 3 4 7 8 9 11 12 12 13 14 14 14 14 14 15 16 15 12 11 12 12 22 25 28 27
21 23 24 26 24 31 21 19 19 13 10 11 11 17 16 13 8 3 4 3 6 8 10 10 12 13 14 13 14 15 16 16 16 17 17 16 15 15 17 15 18 22 25 25
24 23 27 27 31 30 25 22 20 11 15 9 13 14 16 13 10 9 7 6 7 9 12 13 14 13 14 16 16 16 16 16 17 19 19 18 18 18 18 19 21 22 23 24
22 20 24 26 32 33 23 19 18 9 20 7 9 13 13 14 25 20 11 8 9 11 13 16 18 17 17 18 18 18 18 19 20 21 22 22 21 22 21 22 24 25 25 27
18 21 25 29 27 23 22 21 24 23 23 11 9 11 14 21 20 12 12 14 14 16 17 19 19 20 20 21 20 21 22 24 25 24 24 23 24 24 24 25 25 27 28 29
19 20 21 24 26 28 22 20 21 14 9 9 11 10 11 12 13 14 17 19 19 20 21 22 22 22 23 24 24 25 26 27 27 28 28 27 26 25 25 26 28 29 28 29
20 17 18 18 18 14 13 10 10 9 9 8 8 9 11 14 16 15 17 18 19 20 21 22 23 24 25 25 25 27 28 28 29 29 29 29 30 29 29 28 29 29 29 30
19 18 18 18 16 14 13 11 11 12 11 11 11 13 14 14 15 17 17 17 19 20 21 22 23 24 24 25 26 26 27 27 28 28 29 29 29 30 30 30 29 31 31 31
20 21 20 20 17 14 17 15 14 13 13 14 14 16 17 14 15 14 16 18 19 20 21 22 23 24 25 26 26 26 26 27 27 28 28 28 29 29 30 30 30 31 31 31
19 21 21 21 20 18 17 15 13 13 15 13 14 14 13 11 13 15 17 17 18 19 20 21 22 23 24 25 25 25 25 26 28 29 30 31 32 32 33 34 35 34 35 36
Wind_Direction
245 250 244 239 238 236 242 250 241 293 290 287 296 353 77 103 132 139 142 141 140 138 131 130 127 123 122 121 111 115 116 117 125 131 138 142 127 129 141 141 143 146 155 162
249 246 241 240 235 238 242 245 262 256 307 297 276 290 130 124 152 150 150 149 149 144 142 137 132 127 131 127 119 117 120 115 127 144 158 146 132 129 117 129 147 148 147 158
244 247 242 240 238 240 244 245 257 250 277 296 294 254 263 246 211 150 153 194 155 152 151 145 140 136 135 132 127 125 127 121 127 129 83 80 102 125 122 131 137 145 142 155
246 238 244 243 240 242 243 244 262 243 237 258 271 284 253 250 147 150 152 168 170 176 184 154 149 144 142 140 133 129 135 137 139 119 130 124 149 144 144 133 126 135 136 150
242 242 241 245 241 243 243 246 256 254 266 261 262 268 257 249 242 153 157 160 168 176 189 161 167 156 148 145 143 142 144 154 150 174 126 109 138 144 158 128 113 125 142 149
243 246 245 253 245 246 246 248 257 257 266 250 255 246 261 256 179 159 187 221 179 160 166 167 172 163 154 150 147 144 149 157 155 145 110 110 137 135 121 129 137 118 139 146
244 245 245 252 245 247 246 246 249 247 250 247 259 265 274 228 192 232 260 249 228 224 160 169 180 172 159 155 152 147 159 156 160 149 143 128 148 117 129 131 133 138 138 144
244 244 241 252 245 244 243 244 245 248 248 251 273 258 264 214 182 198 165 181 243 242 232 223 203 216 165 165 161 146 156 158 162 156 160 146 118 95 141 148 149 149 146 140
255 245 259 250 257 238 245 243 245 263 257 264 271 276 275 185 216 279 181 256 231 239 254 255 252 251 251 239 240 160 153 159 160 164 169 169 140 130 154 163 156 158 144 148
264 252 256 248 244 244 253 246 248 251 251 249 261 254 256 240 226 2 300 268 217 267 269 265 261 264 256 250 261 250 241 160 162 162 175 169 175 163 156 184 178 125 112 134
260 260 256 244 237 241 251 241 252 261 259 257 253 261 271 238 216 242 332 337 0 310 249 253 260 275 254 255 270 282 265 248 248 210 241 244 252 198 204 224 216 72 127 129
265 257 251 244 256 254 248 247 249 252 253 269 260 264 289 273 252 270 345 19 17 14 36 329 270 288 285 263 266 274 274 264 261 256 253 227 229 189 167 189 185 118 136 143
267 267 251 247 251 258 248 247 251 253 262 263 253 257 260 295 191 313 340 6 2 18 12 9 341 332 341 308 327 265 270 263 263 271 266 256 254 208 184 178 183 174 147 146
267 265 261 253 249 266 260 247 246 249 259 266 252 254 246 261 269 351 16 10 0 6 6 17 10 354 347 340 338 337 336 284 275 267 269 270 263 251 256 257 255 271 201 228
258 260 266 265 267 274 276 256 243 250 256 256 248 253 244 240 227 271 13 18 16 18 12 10 20 13 1 6 356 337 334 330 320 309 284 269 277 270 263 254 261 249 257 266
267 252 262 261 275 280 272 280 246 259 263 251 243 254 244 218 187 247 279 20 14 28 27 15 22 31 24 9 1 16 9 359 356 0 339 316 308 258 270 268 261 260 256 264
269 261 262 254 277 273 261 281 285 274 254 238 244 231 221 229 228 261 312 343 341 5 348 343 346 9 18 13 7 11 14 11 1 354 348 352 349 330 320 306 274 267 260 266
273 264 262 260 267 253 268 288 288 301 266 252 226 224 230 247 240 294 23 324 303 314 325 330 326 331 340 351 353 355 359 4 2 358 351 341 333 322 311 312 303 291 275 277
274 267 260 260 260 264 269 273 281 285 276 234 221 220 230 236 249 279 331 335 314 305 308 319 320 324 328 333 330 331 340 347 344 339 338 338 334 324 315 309 303 300 298 289
275 270 265 264 260 259 262 271 278 284 264 251 219 217 213 235 251 259 280 302 320 330 321 313 310 317 320 321 323 322 323 326 326 326 325 325 326 320 314 311 304 302 298 292
286 275 267 260 263 272 271 276 274 262 258 245 230 240 240 259 264 256 277 293 305 311 314 314 314 313 316 319 318 315 314 311 313 315 315 316 314 313 314 310 309 303 298 295
292 284 276 268 264 261 281 273 267 268 278 264 255 255 262 266 270 277 282 285 293 298 303 307 309 310 314 317 313 308 308 311 311 308 307 308 310 311 310 309 306 303 301 299
289 300 290 289 279 297 302 293 294 289 276 287 284 283 274 270 274 282 284 289 295 297 300 304 305 308 312 314 314 310 310 313 313 309 307 306 306 305 305 303 305 305 304 302
301 302 292 291 293 294 295 293 298 294 288 288 291 288 291 282 282 281 283 293 300 303 304 307 306 307 310 314 315 316 318 319 318 313 311 308 308 308 307 305 302 303 301 301
298 301 295 288 290 287 287 291 296 287 286 287 288 286 285 285 286 290 293 297 297 300 304 307 306 306 308 312 314 316 319 320 317 317 317 314 313 312 308 307 309 305 301 300
306 300 288 287 297 282 277 278 291 291 286 282 285 285 289 292 287 292 295 302 304 304 305 306 306 306 308 310 312 318 324 323 320 317 315 314 313 310 308 306 302 302 303 303